Terug naar catalogus

SDA_1684

ActiefMilitairPO
NORAD 65994·PAYLOAD·🇺🇸 United States

Gelanceerd Oct 15, 2025 vanaf Vandenberg Space Force Base

Loading…

Volgende Passages (komende 24 uur)

TLE

VersSource: Space-Track

Epoch: Sep 14, 2026, 08:32 UTC

1 65994U 25230W   26257.35616062  .00000166  00000-0  15355-3 0  9991
2 65994  81.3006 130.5942 0000948  36.6744 323.4474 13.78099988 46052

Volg SDA_1684 in realtime met AllMySat

Download on the App Store